This is the latest recevied weather packets stored in our database for station/object DM1HF-13. If no packets are shown the sender has not sent any weather packets the latest 10 day(s).
| Time | Temp. | Humidity | Pressure | Rain* | Wind** | Luminosity | Snow |
|---|---|---|---|---|---|---|---|
| 1777544717 | 15.56° C | 29% | 1034 hPa | 0 mm | - | 608 W/m² | - |
| 1777544417 | 15.56° C | 27% | 1033.9 hPa | 0 mm | - | 603 W/m² | - |
| 1777544117 | 15.56° C | 29% | 1033.9 hPa | 0 mm | - | 595 W/m² | - |
| 1777543817 | 15° C | 28% | 1033.9 hPa | 0 mm | - | 588 W/m² | - |
| 1777543517 | 14.44° C | 28% | 1033.9 hPa | 0 mm | - | 580 W/m² | - |
| 1777543217 | 15° C | 27% | 1034 hPa | 0 mm | - | 570 W/m² | - |
| 1777542917 | 14.44° C | 27% | 1034 hPa | 0 mm | - | 565 W/m² | - |
| 1777542617 | 15° C | 27% | 1033.9 hPa | 0 mm | - | 557 W/m² | - |
| 1777542317 | 14.44° C | 27% | 1034 hPa | 0 mm | - | 548 W/m² | - |
| 1777542017 | 14.44° C | 27% | 1034 hPa | 0 mm | - | 545 W/m² | - |
| 1777541717 | 14.44° C | 27% | 1034.1 hPa | 0 mm | - | 550 W/m² | - |
| 1777541417 | 13.89° C | 30% | 1034.1 hPa | 0 mm | - | 555 W/m² | - |
| 1777541117 | 14.44° C | 27% | 1034.2 hPa | 0 mm | - | 562 W/m² | - |
| 1777540817 | 13.89° C | 26% | 1034.2 hPa | 0 mm | - | 565 W/m² | - |
| 1777540517 | 14.44° C | 28% | 1034.3 hPa | 0 mm | - | 568 W/m² | - |
| 1777540217 | 13.33° C | 29% | 1034.3 hPa | 0 mm | - | 572 W/m² | - |
| 1777539917 | 13.33° C | 28% | 1034.4 hPa | 0 mm | - | 576 W/m² | - |
| 1777539617 | 13.33° C | 28% | 1034.4 hPa | 0 mm | - | 580 W/m² | - |
| 1777539317 | 13.33° C | 28% | 1034.4 hPa | 0 mm | - | 579 W/m² | - |
| 1777539017 | 13.33° C | 28% | 1034.4 hPa | 0 mm | - | 581 W/m² | - |
| 1777538717 | 13.33° C | 30% | 1034.5 hPa | 0 mm | - | 581 W/m² | - |
| 1777538417 | 13.33° C | 28% | 1034.6 hPa | 0 mm | - | 583 W/m² | - |
| 1777538117 | 13.33° C | 27% | 1034.6 hPa | 0 mm | - | 581 W/m² | - |
| 1777537817 | 13.33° C | 30% | 1034.6 hPa | 0 mm | - | 580 W/m² | - |
| 1777537517 | 12.78° C | 31% | 1034.7 hPa | 0 mm | - | 581 W/m² | - |
* Rain latest hour (hover to see other rain measurements)
** Current wind speed in m/s (hover to see current wind gust speed)